Wind_Speed
37 37 37 35 38 36 28 29 32 33 30 28 28 28 22 19 18 20 19 20 22 19 18 17 19 20 18 19 16 17 12 10 10 9 6 8 12 9 23 22 21 22 21
37 40 39 38 39 33 29 32 33 31 29 28 26 24 19 18 19 20 19 21 20 19 17 18 19 18 19 20 18 14 14 12 11 11 11 10 14 13 17 19 19 19 21
36 39 39 37 35 30 32 32 34 30 26 24 24 19 19 19 21 20 19 20 19 18 19 18 19 17 20 20 20 17 16 12 13 12 13 14 14 16 19 20 20 20 20
39 38 37 35 32 31 32 32 31 27 24 24 20 19 20 21 22 21 20 21 20 18 19 19 20 21 23 19 18 16 17 17 14 15 15 18 14 18 19 26 20 17 20
35 33 34 33 32 31 31 30 27 25 22 22 19 21 21 22 22 21 22 22 20 19 19 20 22 22 21 21 17 14 17 21 17 15 18 20 17 19 24 23 21 19 23
34 33 32 32 30 29 28 26 25 23 22 21 20 20 21 21 21 21 21 19 19 19 18 19 21 22 23 17 13 16 17 17 19 18 20 19 18 16 18 21 21 19 22
35 33 31 28 27 28 27 23 23 21 19 17 18 18 17 18 18 17 17 17 17 16 17 17 19 19 17 13 16 17 15 21 20 18 21 20 19 20 18 19 21 23 24
32 31 30 28 27 25 22 22 20 18 16 15 16 15 16 17 15 14 14 16 14 14 15 15 18 15 8 8 14 14 14 18 18 19 21 18 17 18 19 21 24 25 23
36 30 28 27 25 23 21 19 17 13 13 15 14 15 15 14 13 11 13 13 12 12 14 15 15 13 10 11 14 14 13 13 19 16 19 18 17 19 22 23 22 21 21
33 30 30 25 21 20 18 17 15 14 14 14 14 12 12 13 11 11 12 11 10 11 14 15 9 7 12 11 12 13 15 15 17 22 23 22 21 21 20 22 23 23 25
33 30 24 22 20 19 17 15 15 14 15 15 13 8 10 11 10 10 11 9 9 11 13 9 7 8 11 11 15 14 15 15 19 24 23 23 25 23 20 20 23 23 23
29 26 23 21 18 16 15 15 15 14 14 14 13 10 9 11 11 10 8 7 8 11 10 7 6 12 9 13 15 14 15 18 21 20 19 22 25 25 24 22 21 22 22
28 24 22 17 17 16 16 15 14 14 13 12 12 13 10 10 9 7 6 6 8 9 7 4 7 10 10 17 15 14 15 18 20 19 17 19 22 23 24 22 20 22 23
26 22 18 18 16 16 15 14 13 13 13 13 13 12 10 9 7 6 5 5 7 6 1 4 9 10 11 17 15 15 15 15 16 16 17 20 18 19 21 19 19 20 21
25 22 21 17 16 15 13 11 11 10 10 9 10 9 8 8 8 7 6 5 4 2 3 4 10 12 15 17 16 13 13 15 13 13 15 16 18 19 20 18 21 23 22
24 23 19 16 15 13 10 9 9 8 7 8 8 9 9 8 10 8 8 6 5 3 3 3 7 11 14 18 19 15 12 14 13 14 17 17 14 16 17 19 20 20 19
24 20 16 15 12 9 8 7 7 6 8 8 8 10 9 8 11 8 8 7 6 4 5 4 6 11 15 16 18 20 16 14 13 14 15 13 14 17 17 18 13 12 15
22 17 15 13 10 7 6 8 7 6 6 7 12 12 9 10 10 9 8 8 6 5 5 4 7 12 16 17 16 17 17 17 15 16 15 15 15 17 18 18 18 17 18
19 15 13 11 9 6 5 8 9 9 7 6 10 11 10 9 8 8 7 6 5 4 3 4 8 14 17 15 16 17 15 15 15 15 16 19 18 15 15 17 18 19 17
17 15 13 11 9 7 6 5 6 8 9 10 11 9 7 7 8 9 8 7 7 7 6 7 10 15 19 16 13 13 14 15 15 16 18 20 15 14 15 17 21 21 19
18 15 13 12 10 6 4 4 7 11 12 14 11 9 6 7 9 9 9 10 10 9 8 9 10 14 19 18 17 15 14 14 14 15 18 20 16 15 15 13 15 19 22
16 15 14 13 10 7 6 8 9 12 14 13 11 9 8 8 8 9 10 9 9 10 11 11 11 11 12 13 12 12 11 11 12 13 15 16 16 13 10 11 14 17 20
16 14 13 14 12 9 10 10 12 14 15 13 10 8 9 8 9 9 9 10 10 12 12 10 7 7 9 9 9 8 9 8 8 9 11 11 12 14 13 13 14 16 19
13 14 15 15 12 9 9 11 12 14 14 13 11 10 10 9 11 11 10 10 10 10 10 10 10 11 10 11 12 13 12 12 13 13 14 14 14 13 13 14 15 17 18
15 9 14 16 15 10 9 11 15 16 15 15 14 13 13 14 13 11 11 11 11 10 9 9 9 9 10 11 11 11 11 12 13 13 14 15 15 16 17 19 20 20 21
13 16 17 17 16 15 13 13 14 15 15 14 14 15 14 11 10 11 10 9 8 6 6 5 6 6 7 8 9 10 10 11 13 14 15 16 17 19 21 23 24 25 26
Wind_Direction
244 242 242 242 240 248 245 239 242 248 249 256 263 269 264 266 273 281 284 287 301 300 292 286 290 293 294 287 290 290 280 271 261 242 217 194 174 169 167 167 176 183 183
235 235 237 239 237 242 238 235 240 243 247 256 261 258 257 265 271 274 279 288 300 298 295 292 293 292 292 296 290 291 272 262 240 223 193 206 192 184 175 172 178 180 185
224 227 231 235 237 235 229 233 238 239 247 252 252 253 258 263 269 270 277 285 295 295 293 296 295 290 293 290 287 274 254 244 213 206 198 197 203 194 191 183 183 182 186
217 222 228 229 230 224 227 232 234 240 241 244 248 250 259 264 268 266 274 278 290 296 289 285 295 295 298 291 284 267 232 213 198 202 202 201 204 203 193 179 177 180 185
215 220 220 216 215 220 225 227 233 235 231 246 245 252 256 264 268 270 270 276 288 292 284 279 294 296 291 295 281 238 203 204 202 202 196 200 199 191 172 172 176 174 180
212 210 211 213 211 217 223 226 228 225 236 234 238 248 261 269 273 269 267 275 286 289 280 286 297 299 293 282 253 200 193 200 204 200 192 193 202 200 183 181 180 181 180
206 202 202 203 205 213 219 223 226 230 222 227 242 257 267 269 271 267 267 278 284 281 281 294 299 294 297 260 201 200 209 214 197 201 201 197 196 196 193 194 190 183 181
192 198 197 199 207 214 217 222 223 220 224 238 255 261 263 266 264 260 274 284 278 280 288 295 301 295 282 184 190 199 209 201 183 191 193 202 198 195 191 191 194 189 186
186 189 196 203 206 213 217 216 215 217 233 245 252 257 259 257 250 262 284 284 284 286 292 300 299 286 218 186 185 190 193 199 191 198 192 186 188 184 185 183 190 192 185
172 185 196 197 205 212 211 208 212 217 233 243 247 254 252 244 246 274 293 281 278 286 291 298 295 236 198 190 188 194 192 184 185 179 174 175 182 188 184 185 190 190 188
177 186 187 197 204 203 201 205 207 222 235 236 239 254 245 238 257 281 284 265 274 288 296 291 281 225 196 188 179 181 186 185 179 180 184 181 181 183 182 188 194 197 197
175 180 187 193 194 193 199 203 210 222 225 231 237 244 257 249 251 272 260 265 286 293 294 281 269 203 191 182 177 174 177 177 183 187 189 187 186 182 184 192 197 196 196
177 180 186 179 185 195 196 203 213 217 223 235 235 242 254 252 242 251 252 270 286 301 295 250 215 203 197 180 176 174 169 173 183 187 187 188 190 191 190 189 190 192 201
175 176 174 179 187 188 194 207 217 226 231 236 241 243 246 233 227 217 239 262 293 336 291 218 191 186 188 177 178 182 175 172 182 192 195 195 194 195 193 202 204 193 196
167 170 173 180 185 190 198 210 226 230 232 232 236 233 225 212 208 202 231 242 254 282 73 156 175 179 178 172 171 164 174 174 177 185 187 191 195 196 202 186 183 175 168
166 169 174 177 185 191 201 215 217 216 222 229 222 209 200 201 194 204 223 228 231 231 236 135 177 188 181 177 183 181 172 172 172 174 175 183 196 200 203 176 173 177 184
164 166 171 175 178 190 206 213 203 206 224 230 215 200 201 193 191 212 224 217 217 228 226 210 186 186 189 183 183 179 181 178 177 184 185 188 184 192 197 193 189 195 190
160 164 171 172 178 181 195 195 203 218 228 224 202 203 206 192 194 220 233 200 208 228 214 227 193 184 186 178 175 169 174 177 183 186 186 181 180 189 195 204 210 216 219
158 165 175 170 169 180 202 226 229 225 215 195 184 188 185 192 199 225 204 198 201 194 209 194 193 183 180 177 173 170 178 184 183 188 190 185 186 195 206 212 212 212 209
161 168 177 164 169 184 217 227 214 198 184 170 162 165 180 185 196 193 184 169 159 145 142 149 172 173 175 166 164 166 174 181 188 194 193 192 205 221 229 235 226 219 216
163 169 172 165 170 179 165 123 151 165 168 158 155 156 158 171 181 178 169 159 142 130 137 121 133 165 168 165 171 179 178 182 189 197 202 208 226 232 228 227 216 212 218
168 166 164 172 165 190 156 153 148 149 148 149 149 146 140 143 156 154 150 143 142 135 132 122 118 131 163 174 175 180 189 199 203 209 214 218 220 217 215 218 220 220 215
159 165 169 174 175 172 155 159 155 152 151 144 137 135 125 124 129 139 155 156 162 171 172 168 161 160 169 179 186 189 191 189 198 197 196 205 208 211 219 224 224 226 230
150 166 175 181 175 169 166 148 150 142 138 144 149 148 144 152 158 140 137 154 168 176 187 195 197 187 180 177 178 177 176 183 195 204 207 210 217 230 238 242 242 242 242
191 182 181 181 176 169 164 148 148 144 152 162 166 165 165 158 146 146 150 161 168 166 173 173 176 181 192 194 197 203 209 212 215 221 225 231 232 232 236 239 243 248 251
180 182 182 185 185 174 177 166 166 171 179 182 180 182 181 180 176 176 176 170 177 181 179 198 208 210 212 222 230 231 232 235 235 236 234 235 239 241 248 251 256 258 260
Height
5710 5714 5718 5724 5726 5730 5735 5736 5738 5740 5742 5743 5743 5744 5743 5742 5741 5741 5740 5738 5736 5733 5730 5728 5727 5725 5724 5724 5722 5721 5720 5720 5720 5720 5719 5721 5722 5725 5727 5731 5735 5739 5743
5701 5705 5710 5713 5717 5724 5727 5729 5731 5732 5735 5736 5737 5737 5737 5736 5736 5735 5734 5732 5730 5728 5725 5723 5722 5720 5719 5718 5717 5716 5716 5717 5717 5718 5718 5720 5722 5725 5728 5731 5734 5736 5741
5690 5696 5701 5705 5711 5716 5719 5721 5723 5726 5728 5730 5730 5730 5730 5730 5730 5729 5728 5727 5725 5723 5720 5718 5717 5716 5714 5713 5711 5710 5711 5713 5714 5715 5717 5719 5722 5723 5725 5729 5733 5736 5740
5678 5685 5692 5698 5705 5709 5712 5714 5716 5719 5722 5724 5723 5724 5724 5724 5724 5723 5723 5721 5719 5717 5715 5713 5712 5710 5708 5706 5705 5704 5705 5708 5711 5713 5715 5718 5720 5722 5723 5727 5732 5736 5739
5670 5677 5684 5690 5696 5701 5704 5707 5710 5711 5714 5715 5717 5718 5718 5718 5717 5717 5716 5715 5713 5711 5709 5708 5706 5704 5701 5699 5699 5698 5700 5704 5708 5710 5713 5716 5719 5720 5724 5727 5731 5734 5738
5664 5671 5678 5684 5691 5695 5698 5702 5705 5708 5709 5711 5712 5712 5712 5711 5710 5710 5710 5709 5707 5705 5704 5703 5701 5698 5695 5693 5694 5695 5698 5701 5705 5708 5711 5715 5718 5721 5724 5727 5730 5734 5737
5658 5666 5673 5679 5685 5689 5693 5695 5700 5702 5704 5705 5706 5706 5705 5705 5705 5704 5704 5703 5702 5700 5700 5699 5696 5693 5690 5688 5690 5692 5695 5698 5702 5705 5709 5712 5716 5720 5724 5727 5731 5733 5736
5653 5661 5669 5674 5679 5684 5688 5691 5693 5696 5698 5699 5699 5700 5700 5699 5699 5700 5699 5698 5697 5696 5696 5694 5691 5688 5686 5686 5688 5691 5693 5695 5699 5702 5705 5710 5714 5718 5722 5725 5729 5731 5735
5649 5657 5663 5671 5675 5679 5683 5686 5687 5690 5692 5693 5694 5695 5694 5694 5695 5696 5695 5694 5693 5693 5691 5689 5686 5684 5684 5685 5687 5689 5692 5694 5697 5700 5704 5708 5713 5716 5720 5723 5728 5732 5735
5644 5654 5662 5666 5671 5675 5678 5681 5684 5686 5687 5688 5689 5690 5690 5691 5691 5692 5691 5691 5690 5689 5688 5685 5683 5681 5682 5684 5686 5687 5690 5692 5695 5698 5702 5706 5711 5715 5719 5722 5726 5729 5732
5641 5651 5656 5662 5667 5671 5674 5678 5681 5682 5684 5685 5686 5686 5687 5687 5688 5688 5688 5688 5687 5686 5684 5681 5680 5680 5681 5683 5685 5687 5689 5692 5695 5698 5702 5705 5709 5713 5717 5721 5724 5728 5732
5642 5647 5653 5659 5663 5668 5671 5674 5677 5679 5680 5681 5682 5683 5683 5684 5684 5685 5685 5685 5684 5683 5680 5679 5678 5678 5680 5682 5684 5687 5689 5691 5695 5699 5702 5705 5708 5711 5714 5719 5723 5727 5730
5641 5647 5652 5655 5661 5664 5668 5670 5673 5675 5676 5677 5678 5680 5680 5680 5681 5682 5682 5682 5681 5679 5677 5676 5676 5678 5680 5682 5685 5687 5689 5691 5695 5699 5703 5706 5709 5713 5715 5718 5721 5725 5728
5640 5644 5650 5655 5658 5661 5664 5667 5669 5671 5672 5673 5674 5675 5676 5677 5678 5678 5680 5680 5679 5677 5675 5675 5676 5678 5680 5682 5685 5688 5691 5693 5696 5700 5703 5706 5710 5713 5716 5717 5719 5721 5724
5636 5643 5648 5651 5655 5658 5662 5664 5666 5667 5668 5669 5670 5671 5673 5674 5675 5676 5678 5678 5678 5677 5676 5676 5677 5678 5680 5682 5686 5689 5692 5694 5697 5700 5703 5706 5710 5712 5714 5717 5718 5720 5723
5636 5640 5645 5649 5653 5657 5659 5661 5662 5663 5664 5665 5667 5669 5670 5671 5673 5675 5676 5677 5676 5676 5676 5676 5677 5679 5680 5682 5686 5689 5692 5694 5697 5700 5703 5706 5709 5712 5713 5716 5719 5721 5723
5635 5640 5644 5647 5651 5653 5656 5657 5659 5660 5661 5663 5663 5666 5668 5669 5671 5673 5674 5675 5675 5675 5675 5676 5677 5678 5680 5682 5684 5687 5691 5693 5697 5699 5702 5705 5708 5710 5713 5716 5720 5722 5723
5634 5638 5642 5645 5649 5651 5653 5656 5658 5658 5659 5660 5661 5663 5665 5667 5669 5672 5673 5673 5673 5674 5674 5675 5676 5677 5679 5682 5685 5688 5691 5694 5696 5699 5701 5704 5707 5710 5713 5716 5718 5720 5722
5633 5637 5642 5645 5647 5649 5652 5654 5655 5656 5657 5658 5660 5662 5664 5666 5668 5670 5671 5672 5672 5673 5673 5674 5675 5677 5679 5682 5685 5688 5692 5694 5697 5699 5701 5703 5706 5709 5712 5714 5716 5717 5720
5633 5637 5641 5644 5646 5648 5651 5652 5652 5654 5656 5658 5660 5662 5664 5665 5667 5668 5670 5671 5671 5672 5673 5674 5674 5677 5680 5683 5686 5689 5692 5694 5697 5699 5701 5704 5706 5708 5709 5710 5712 5714 5716
5632 5636 5640 5642 5645 5648 5650 5650 5651 5653 5656 5658 5661 5663 5664 5665 5667 5668 5670 5671 5672 5674 5676 5676 5676 5678 5681 5684 5686 5689 5692 5694 5696 5698 5701 5703 5705 5707 5708 5709 5711 5713 5715
5633 5636 5640 5643 5646 5648 5650 5651 5652 5654 5657 5659 5662 5664 5665 5666 5668 5669 5671 5673 5674 5676 5678 5679 5680 5682 5684 5686 5687 5689 5691 5693 5695 5697 5699 5701 5703 5705 5707 5708 5709 5711 5712
5633 5637 5640 5643 5646 5648 5649 5651 5652 5654 5658 5662 5665 5666 5668 5669 5669 5671 5672 5673 5675 5677 5679 5680 5682 5683 5685 5687 5688 5690 5692 5694 5695 5696 5698 5700 5702 5704 5705 5706 5707 5708 5710
5633 5636 5640 5643 5647 5649 5650 5652 5654 5657 5660 5663 5665 5666 5668 5668 5670 5670 5672 5674 5675 5677 5679 5680 5681 5683 5685 5687 5688 5689 5690 5692 5694 5696 5697 5698 5701 5702 5703 5705 5705 5706 5707
5632 5635 5639 5642 5645 5649 5651 5652 5655 5657 5660 5661 5663 5665 5668 5670 5671 5671 5673 5674 5676 5678 5679 5681 5683 5685 5686 5688 5688 5689 5691 5691 5693 5694 5695 5696 5697 5698 5698 5699 5699 5700 5700
5629 5633 5637 5639 5644 5648 5650 5653 5655 5657 5659 5661 5663 5665 5668 5669 5671 5673 5674 5676 5678 5679 5681 5682 5683 5685 5686 5687 5688 5689 5690 5691 5692 5692 5692 5692 5693 5693 5693 5693 5693 5693 5692